GW5226 Weather Reports


time (UTC)temp
C
wind
direction
speed
KPH
gust
KPH
rain 1hr
cm
rain 24hr
cm
rain mn
cm
humidity
%
barometer
mb
20260504190518 16 13 14.5 27.4 0.00 0.00 0.00 34 952.5
20260504190017 16 16 16.1 29.0 0.00 0.00 0.00 34 952.5
20260504185018 16 298 16.1 29.0 0.00 0.00 0.00 32 952.3
20260504184515 17 326 12.9 20.9 0.00 0.00 0.00 33 952.2
20260504184015 17 304 14.5 29.0 0.00 0.00 0.00 35 952.2
20260504183509 17 315 14.5 29.0 0.00 0.00 0.00 35 952.2
20260504183007 17 315 14.5 24.1 0.00 0.00 0.00 35 952.0
20260504182506 17 291 14.5 24.1 0.00 0.00 0.00 35 951.9
20260504182007 17 323 14.5 27.4 0.00 0.00 0.00 36 951.9
20260504181503 17 318 14.5 27.4 0.00 0.00 0.00 36 951.8
20260504181003 17 315 12.9 25.7 0.00 0.00 0.00 34 951.6
20260504180504 18 344 14.5 27.4 0.00 0.00 0.00 33 951.5
20260504180003 17 311 14.5 27.4 0.00 0.00 0.00 34 951.4
20260504175504 17 311 12.9 20.9 0.00 0.00 0.00 32 951.3
20260504175003 17 347 12.9 20.9 0.00 0.00 0.00 33 951.5
20260504174504 17 357 12.9 20.9 0.00 0.00 0.00 33 951.3
20260504174003 17 155 11.3 19.3 0.00 0.00 0.00 32 951.3
20260504173504 17 324 12.9 22.5 0.00 0.00 0.00 32 951.0
20260504173003 17 304 12.9 27.4 0.00 0.00 0.00 32 951.1
20260504172001 17 327 11.3 20.9 0.00 0.00 0.00 34 951.1
20260504171501 17 5 12.9 22.5 0.00 0.00 0.00 33 951.1
20260504171001 17 287 12.9 22.5 0.00 0.00 0.00 33 951.2
20260504170459 17 304 11.3 20.9 0.00 0.00 0.00 33 951.1
20260504150932 16 67 9.7 22.5 0.00 0.00 0.00 39 949.7
20260504150704 16 31 9.7 17.7 0.00 0.00 0.00 39 949.8
20260504140921 15 24 9.7 22.5 0.00 0.00 0.00 45 949.2
20260504140421 15 76 8.0 22.5 0.00 0.00 0.00 48 949.2
20260504140138 15 11 8.0 17.7 0.00 0.00 0.00 51 949.2
20260504130404 13 307 8.0 16.1 0.00 0.00 0.00 61 948.5
20260504110608 10 174 3.2 9.7 0.00 0.00 0.00 62 947.3
20260504100336 11 154 1.6 6.4 0.00 0.00 0.00 58 948.0
20260504081817 12 203 4.8 11.3 0.00 0.00 0.00 49 948.8
20260504081317 12 200 4.8 12.9 0.00 0.00 0.00 49 948.8
20260504080317 12 177 3.2 9.7 0.00 0.00 0.00 48 948.9
20260504070302 11 0 1.6 4.8 0.00 0.00 0.00 53 949.8
20260504050218 12 224 1.6 4.8 0.00 0.00 0.00 46 951.4
20260504044708 12 282 0.0 6.4 0.00 0.00 0.00 45 951.5
20260504043707 13 0 0.0 4.8 0.00 0.00 0.00 45 951.6
20260504043203 13 0 1.6 4.8 0.00 0.00 0.00 45 951.7
20260504042158 13 0 1.6 4.8 0.00 0.00 0.00 45 951.9
20260504041658 13 0 1.6 4.8 0.00 0.00 0.00 44 952.0
20260504041159 13 201 1.6 6.4 0.00 0.00 0.00 44 952.0
20260504040659 13 235 1.6 6.4 0.00 0.00 0.00 44 952.2
20260504040159 13 224 0.0 4.8 0.00 0.00 0.00 44 952.2
20260504035658 13 0 0.0 4.8 0.00 0.00 0.00 44 952.2
20260504035158 13 252 0.0 4.8 0.00 0.00 0.00 44 952.3
20260504034658 13 249 0.0 4.8 0.00 0.00 0.00 45 952.4
20260504034155 13 65 1.6 6.4 0.00 0.00 0.00 44 952.4
20260504033655 13 193 1.6 6.4 0.00 0.00 0.00 45 952.5
20260504032653 13 200 0.0 3.2 0.00 0.00 0.00 44 952.7
20260504032153 13 242 0.0 4.8 0.00 0.00 0.00 43 952.8
20260504031653 13 0 1.6 4.8 0.00 0.00 0.00 43 952.8
20260504031147 13 0 0.0 4.8 0.00 0.00 0.00 43 952.9
20260504030643 13 0 1.6 4.8 0.00 0.00 0.00 43 953.0
20260504025644 14 205 1.6 4.8 0.00 0.00 0.00 44 953.1
20260504024644 14 294 0.0 6.4 0.00 0.00 0.00 44 953.2
20260504024144 14 0 0.0 3.2 0.00 0.00 0.00 43 953.3
20260504023644 14 0 0.0 6.4 0.00 0.00 0.00 43 953.3
20260504022641 15 36 0.0 3.2 0.00 0.00 0.00 42 953.2
20260504022139 15 227 0.0 3.2 0.00 0.00 0.00 42 953.3
20260504021635 15 347 0.0 3.2 0.00 0.00 0.00 41 953.3
20260504020629 15 331 0.0 3.2 0.00 0.00 0.00 41 953.2
20260504020129 16 197 0.0 3.2 0.00 0.00 0.00 41 953.2
20260504015635 16 0 0.0 3.2 0.00 0.00 0.00 40 953.2
20260504015126 16 120 0.0 4.8 0.00 0.00 0.00 40 953.3
20260504014627 16 331 0.0 4.8 0.00 0.00 0.00 40 953.4
20260504014127 17 298 1.6 4.8 0.00 0.00 0.00 39 953.4
20260504013626 17 299 1.6 3.2 0.00 0.00 0.00 39 953.3
20260504013126 17 0 0.0 3.2 0.00 0.00 0.00 39 953.4
20260504012626 18 0 0.0 3.2 0.00 0.00 0.00 38 953.5
20260504012127 18 0 0.0 3.2 0.00 0.00 0.00 37 953.4
20260504011127 19 0 1.6 4.8 0.00 0.00 0.00 36 953.4
20260504010627 20 264 1.6 4.8 0.00 0.00 0.00 35 953.4
20260504010127 20 0 1.6 8.0 0.00 0.00 0.00 33 953.4
20260504005626 20 100 1.6 8.0 0.00 0.00 0.00 33 953.5
20260504005127 21 0 1.6 6.4 0.00 0.00 0.00 32 953.5
20260504004623 21 298 1.6 8.0 0.00 0.00 0.00 32 953.5
20260504004124 21 275 1.6 8.0 0.00 0.00 0.00 32 953.5
20260504003621 21 112 1.6 6.4 0.00 0.00 0.00 32 953.5
20260504003118 21 177 1.6 6.4 0.00 0.00 0.00 32 953.5
20260504002618 21 0 1.6 4.8 0.00 0.00 0.00 32 953.5
20260504002118 21 187 3.2 11.3 0.00 0.00 0.00 31 953.5
20260504001618 21 135 3.2 11.3 0.00 0.00 0.00 30 953.5
20260504001119 22 251 3.2 14.5 0.00 0.00 0.00 30 953.6
20260504000619 22 326 4.8 14.5 0.00 0.00 0.00 29 953.6
20260504000119 22 299 3.2 12.9 0.00 0.00 0.00 29 953.7
20260503235619 22 171 4.8 14.5 0.00 0.00 0.00 30 953.7
20260503234619 22 295 4.8 17.7 0.00 0.00 0.00 29 953.8
20260503234114 22 276 4.8 17.7 0.00 0.00 0.00 27 953.8
20260503233113 22 307 6.4 14.5 0.00 0.00 0.00 29 953.9
20260503232613 22 301 4.8 14.5 0.00 0.00 0.00 28 954.0
20260503232115 22 310 3.2 12.9 0.00 0.00 0.00 29 954.0
20260503231614 22 47 3.2 9.7 0.00 0.00 0.00 30 954.0
20260503231114 22 322 3.2 9.7 0.00 0.00 0.00 31 954.1
20260503230613 22 0 3.2 17.7 0.00 0.00 0.00 30 954.2
20260503230114 22 189 4.8 17.7 0.00 0.00 0.00 29 954.3
20260503225614 22 299 6.4 14.5 0.00 0.00 0.00 29 954.3
20260503225114 22 325 8.0 19.3 0.00 0.00 0.00 28 954.3
20260503224613 22 312 8.0 20.9 0.00 0.00 0.00 28 954.4
20260503224115 22 290 6.4 20.9 0.00 0.00 0.00 29 954.4
20260503222612 22 57 6.4 14.5 0.00 0.00 0.00 28 954.5
20260503222108 22 309 6.4 14.5 0.00 0.00 0.00 29 954.6
20260503221109 22 309 6.4 16.1 0.00 0.00 0.00 28 954.5
20260503220608 22 318 6.4 17.7 0.00 0.00 0.00 30 954.6
20260503220109 22 236 6.4 17.7 0.00 0.00 0.00 29 954.8
20260503215606 22 289 8.0 19.3 0.00 0.00 0.00 28 954.7
20260503215105 22 152 6.4 19.3 0.00 0.00 0.00 29 954.8
20260503214606 22 323 6.4 19.3 0.00 0.00 0.00 29 954.8
20260503214105 22 318 8.0 19.3 0.00 0.00 0.00 29 955.0
20260503213606 22 300 6.4 16.1 0.00 0.00 0.00 30 955.0
20260503213106 22 287 6.4 14.5 0.00 0.00 0.00 29 955.0
20260503212607 22 304 6.4 14.5 0.00 0.00 0.00 30 955.1
20260503212103 22 261 6.4 14.5 0.00 0.00 0.00 29 955.2
20260503211600 22 318 8.0 16.1 0.00 0.00 0.00 30 955.2
20260503211100 22 308 6.4 16.1 0.00 0.00 0.00 29 955.3
20260503210557 22 309 6.4 17.7 0.00 0.00 0.00 30 955.3
20260503210107 22 302 8.0 17.7 0.00 0.00 0.00 31 955.5
20260503205551 22 318 8.0 17.7 0.00 0.00 0.00 29 955.6
20260503205051 22 286 9.7 17.7 0.00 0.00 0.00 30 955.6
20260503204552 22 297 9.7 17.7 0.00 0.00 0.00 30 955.8
20260503204052 22 301 9.7 20.9 0.00 0.00 0.00 29 955.8
20260503203552 22 35 9.7 20.9 0.00 0.00 0.00 31 955.9
20260503203052 22 303 8.0 14.5 0.00 0.00 0.00 30 955.9
20260503202552 22 266 8.0 17.7 0.00 0.00 0.00 32 956.0
20260503202051 22 241 8.0 17.7 0.00 0.00 0.00 32 956.1
20260503201551 22 323 8.0 17.7 0.00 0.00 0.00 32 956.1
20260503200548 22 240 8.0 14.5 0.00 0.00 0.00 32 956.1
20260503195550 21 17 8.0 14.5 0.00 0.00 0.00 31 956.3
20260503195046 21 314 8.0 19.3 0.00 0.00 0.00 30 956.4
20260503194546 21 284 9.7 20.9 0.00 0.00 0.00 31 956.4
20260503194043 21 304 9.7 20.9 0.00 0.00 0.00 31 956.4
20260503193543 21 282 9.7 20.9 0.00 0.00 0.00 32 956.4
20260503193043 21 317 9.7 17.7 0.00 0.00 0.00 33 956.4
20260503192544 21 19 8.0 16.1 0.00 0.00 0.00 34 956.5
20260503192041 21 331 8.0 14.5 0.00 0.00 0.00 33 956.5
20260503191025 21 331 11.3 22.5 0.00 0.00 0.00 33 956.7